Weather History for Sydney, NW

Change the Weather History Date:

Tuesday, March 19, 2013

  Actual Average Record
Temperature  
Mean Temperature 66 °F -  
Max Temperature 74 °F 75 °F 91 °F (1997)
Min Temperature 57 °F 59 °F 57 °F (2013)
Growing Degree Days 16 (Base 50)    
Moisture  
Dew Point 52 °F    
Average Humidity 57    
Maximum Humidity 72    
Minimum Humidity 30    
Precipitation  
Precipitation 0.04 in 0.17 in - ()
Sea Level Pressure  
Sea Level Pressure 30.22 in    
Wind  
Wind Speed 8 mph ()    
Max Wind Speed 13 mph    
Max Gust Speed -    
Visibility 8.0 miles    
Events      
Averages and records for this station are not official NWS values.
T = Trace of Precipitation, MM = Missing Value Source: Averaged Metar Reports

Daily Weather History Graph

Daily Weather History Graph

Search for Another Location

Airport:

Trip Planner

Search our weather history database for the weather conditions in past years. The results will help you decide how hot, cold, wet, or windy it might be!

Date:

Astronomy

Mar. 19, 2013 Rise Set
Actual Time 6:57 AM AEDT 7:08 PM AEDT
Civil Twilight 6:32 AM AEDT 7:33 PM AEDT
Nautical Twilight 6:03 AM AEDT 8:02 PM AEDT
Astronomical Twilight 5:33 AM AEDT 8:31 PM AEDT
Moon 1:31 PM AEDT (3/19) 11:55 PM AEDT (3/19)
Length of Visible Light 13h 00m
Length of Day
12h 10m
Waxing Crescent, 44% of the Moon is Illuminated
Mar 19
Waxing Crescent
Mar 20
First Quarter
Mar 27
Full
Apr 3
Last Quarter
Apr 10
New

Hourly Weather History & Observations

Time (AEDT) Temp. Dew Point Humidity Pressure Visibility Wind Dir Wind Speed Gust Speed Precip Events Conditions
12:00 AM 64 °F 51 °F 54% 30.21 in 19 mi South 8.1 mph - -   Partly Cloudy
12:00 AM 64.4 °F 51.8 °F 64% 30.18 in 6.2 mi South 8.1 mph - N/A   Partly Cloudy
12:30 AM 62.6 °F 51.8 °F 68% 30.18 in 6.2 mi West 8.1 mph - N/A   Partly Cloudy
1:00 AM 62.6 °F 51.8 °F 68% 30.18 in 6.2 mi WSW 8.1 mph - N/A   Partly Cloudy
1:30 AM 62.6 °F 50.0 °F 63% 30.18 in 6.2 mi WSW 8.1 mph - N/A   Partly Cloudy
2:00 AM 62 °F 50 °F 56% 30.20 in - West 5.8 mph - -  
2:00 AM 62.6 °F 50.0 °F 63% 30.18 in 6.2 mi West 5.8 mph - N/A   Partly Cloudy
2:30 AM 60.8 °F 51.8 °F 72% 30.18 in - West 5.8 mph - N/A   Unknown
2:34 AM 60.8 °F 50.0 °F 68% 30.18 in 6.2 mi West 5.8 mph - N/A   Partly Cloudy
3:00 AM 61 °F 50 °F 59% 30.19 in 19 mi SW 10.4 mph - -   Partly Cloudy
3:00 AM 60.8 °F 50.0 °F 68% 30.18 in 6.2 mi SW 10.4 mph - N/A   Partly Cloudy
3:30 AM 59.0 °F 50.0 °F 72% 30.18 in 6.2 mi NNW 6.9 mph - N/A   Partly Cloudy
4:00 AM 59.0 °F 50.0 °F 72% 30.18 in 6.2 mi NNW 8.1 mph - N/A   Partly Cloudy
4:30 AM 59.0 °F 48.2 °F 67% 30.18 in 6.2 mi North 8.1 mph - N/A   Partly Cloudy
5:00 AM 59 °F 49 °F 62% 30.20 in - NNW 10.4 mph - -  
5:00 AM 59.0 °F 50.0 °F 72% 30.18 in 6.2 mi NNW 10.4 mph - N/A   Partly Cloudy
5:30 AM 59.0 °F 48.2 °F 67% 30.18 in 6.2 mi NW 9.2 mph - N/A   Partly Cloudy
6:00 AM 59 °F 48 °F 58% 30.21 in 19 mi NW 9.2 mph - -   Partly Cloudy
6:00 AM 59.0 °F 48.2 °F 67% 30.18 in 6.2 mi NW 9.2 mph - N/A   Partly Cloudy
6:30 AM 59.0 °F 48.2 °F 67% 30.21 in 6.2 mi NW 9.2 mph - N/A   Partly Cloudy
7:00 AM 57.2 °F 48.2 °F 72% 30.21 in 6.2 mi NW 9.2 mph - N/A   Partly Cloudy
7:30 AM 60.8 °F 46.4 °F 59% 30.21 in 6.2 mi NW 8.1 mph - N/A   Partly Cloudy
8:00 AM 61 °F 48 °F 51% 30.25 in - NW 6.9 mph - -  
8:00 AM 60.8 °F 48.2 °F 63% 30.24 in 6.2 mi NW 6.9 mph - N/A   Partly Cloudy
8:30 AM 62.6 °F 48.2 °F 59% 30.24 in 6.2 mi WNW 8.1 mph - N/A   Partly Cloudy
9:00 AM 64 °F 50 °F 50% 30.25 in 16 mi NW 5.8 mph - -   Partly Cloudy
9:00 AM 64.4 °F 50.0 °F 59% 30.24 in 6.2 mi NW 5.8 mph - N/A   Partly Cloudy
9:30 AM 68.0 °F 53.6 °F 60% 30.24 in 6.2 mi SW 5.8 mph - N/A   Partly Cloudy
10:00 AM 68.0 °F 55.4 °F 64% 30.24 in 6.2 mi South 12.7 mph - N/A   Partly Cloudy
10:30 AM 69.8 °F 53.6 °F 56% 30.24 in 6.2 mi South 12.7 mph - N/A   Partly Cloudy
11:00 AM 70 °F 53 °F 45% 30.26 in - South 10.4 mph - -  
11:00 AM 69.8 °F 53.6 °F 56% 30.24 in 6.2 mi South 10.4 mph - N/A   Scattered Clouds
11:30 AM 69.8 °F 53.6 °F 56% 30.24 in 6.2 mi South 10.4 mph - N/A   Scattered Clouds
12:00 PM 72 °F 54 °F 44% 30.25 in 16 mi South 11.5 mph - -   Partly Cloudy
12:00 PM 71.6 °F 55.4 °F 57% 30.24 in 6.2 mi South 11.5 mph - N/A   Scattered Clouds
12:30 PM 71.6 °F 51.8 °F 50% 30.24 in 6.2 mi SSE 10.4 mph - N/A   Scattered Clouds
1:00 PM 73.4 °F 51.8 °F 47% 30.21 in 6.2 mi SSE 9.2 mph - N/A   Scattered Clouds
1:30 PM 73.4 °F 50.0 °F 44% 30.21 in - SSE 11.5 mph - N/A   Clear
2:00 PM 73 °F 50 °F 33% 30.22 in - SE 10.4 mph - -  
2:00 PM 73.4 °F 50.0 °F 44% 30.21 in - SE 10.4 mph - N/A   Clear
2:30 PM 73.4 °F 50.0 °F 44% 30.21 in - SE 12.7 mph - N/A   Clear
3:00 PM 74 °F 49 °F 30% 30.22 in 16 mi SE 12.7 mph - -   Partly Cloudy
3:00 PM 73.4 °F 48.2 °F 41% 30.21 in 6.2 mi SE 12.7 mph - N/A   Scattered Clouds
3:30 PM 73.4 °F 50.0 °F 44% 30.21 in 6.2 mi SE 12.7 mph - N/A   Scattered Clouds
4:00 PM 73.4 °F 50.0 °F 44% 30.21 in 6.2 mi SE 11.5 mph - N/A   Partly Cloudy
4:30 PM 73.4 °F 51.8 °F 47% 30.21 in 6.2 mi SE 12.7 mph - N/A   Scattered Clouds
5:00 PM 73 °F 53 °F 38% 30.22 in - SE 11.5 mph - -  
5:00 PM 73.4 °F 53.6 °F 50% 30.21 in 6.2 mi SE 11.5 mph - N/A   Partly Cloudy
5:30 PM 73.4 °F 53.6 °F 50% 30.21 in 6.2 mi East 11.5 mph - N/A   Partly Cloudy
6:00 PM 71 °F 53 °F 43% 30.23 in 19 mi East 12.7 mph - -   Partly Cloudy
6:00 PM 71.6 °F 53.6 °F 53% 30.21 in 6.2 mi East 12.7 mph - N/A   Partly Cloudy
6:30 PM 71.6 °F 53.6 °F 53% 30.21 in 6.2 mi ESE 10.4 mph - N/A   Partly Cloudy
7:00 PM 69.8 °F 55.4 °F 60% 30.24 in 6.2 mi ESE 9.2 mph - N/A   Partly Cloudy
7:30 PM 69.8 °F 55.4 °F 60% 30.24 in 6.2 mi East 9.2 mph - N/A   Partly Cloudy
8:00 PM 69 °F 54 °F 49% 30.26 in - East 8.1 mph - -  
8:00 PM 69.8 °F 53.6 °F 56% 30.24 in 6.2 mi East 8.1 mph - N/A   Partly Cloudy
8:30 PM 69.8 °F 55.4 °F 60% 30.27 in 6.2 mi East 8.1 mph - N/A   Partly Cloudy
9:00 PM 69 °F 54 °F 49% 30.28 in 19 mi East 6.9 mph - -   Partly Cloudy
9:00 PM 68.0 °F 53.6 °F 60% 30.27 in 6.2 mi East 6.9 mph - N/A   Partly Cloudy
9:30 PM 68.0 °F 55.4 °F 64% 30.27 in 6.2 mi ENE 9.2 mph - N/A   Partly Cloudy
10:00 PM 68.0 °F 55.4 °F 64% 30.27 in 6.2 mi NE 5.8 mph - N/A   Partly Cloudy
10:30 PM 68.0 °F 55.4 °F 64% 30.27 in 6.2 mi ENE 4.6 mph - N/A   Partly Cloudy
11:00 PM 68 °F 56 °F 56% 30.29 in - NE 5.8 mph - -  
11:00 PM 68.0 °F 55.4 °F 64% 30.27 in 6.2 mi NE 5.8 mph - N/A   Partly Cloudy
11:30 PM 68.0 °F 55.4 °F 64% 30.27 in 6.2 mi NE 5.8 mph - N/A   Partly Cloudy